Flag for United Kingdom Weather past 2 weeks in Swansea, Wales, United Kingdom

Now
65 °F

Mild.


Feels Like: 65 °F
Forecast: 59 / 74 °F
Wind: 17 mph from East

Location: Mumbles

Current Time: Sep 17, 2014 at 2:47:51 AM

Latest Report: Sep 17, 2014 at 2:00 AM


Visibility: N/A

Pressure: 29.90 "Hg

Humidity: 75%

Dew point: 57 °F

Location of SwanseaLocation

Historic Weather in Swansea — Graph

°F

Swansea temperature yesterday

Maximum temperature yesterday: 70 °F (at 12:00 PM)
Minimum temperature yesterday: 58 °F (at 4:00 AM)
Average temperature yesterday: 64 °F

Past Weeks' High & Low Weather Summary

 TemperatureHumidityPressure
High71 °F (Sep 6, 4:00 PM)90% (Sep 3, 12:00 AM)30.34 "Hg (Sep 3, 12:00 AM)
Low54 °F (Sep 7, 5:00 AM)58% (Sep 7, 1:00 PM)29.88 "Hg (Sep 16, 6:00 PM)
Average62 °F75%30.13 "Hg
* Reported Sep 2 1:00 AM — Sep 17 1:00 AM, Swansea, Weather by CustomWeather, © 2014

Note: Actual official high and low records may vary slightly from our data, if they occured in-between our weather recording intervals... More about our weather records

Advertising

Swansea weather history for previous 24 hours

 ConditionsComfort  
Time TempWeatherWind HumidityBarometerVisibility
1:00 AM
Sep 17
66 °FMild.17 mph79%29.90 "HgN/A
12:00 AM66 °FMild.14 mph80%29.90 "HgN/A
11:00 PM
Sep 16
66 °FMild.14 mph81%29.91 "HgN/A
10:00 PM66 °FMild.14 mph81%29.91 "HgN/A
9:00 PM67 °FMild.14 mph78%29.90 "HgN/A
8:00 PM68 °FMild.15 mph75%29.89 "HgN/A
7:00 PM69 °FMild.13 mph73%29.88 "HgN/A
6:00 PM68 °FMild.12 mph75%29.88 "HgN/A
5:00 PM68 °FMild.9 mph74%29.88 "HgN/A
4:00 PM69 °FMild.15 mph72%29.90 "HgN/A
3:00 PM69 °FMild.8 mph75%29.90 "HgN/A
2:00 PM66 °FMild.5 mph81%29.93 "HgN/A
1:00 PM68 °FMild.12 mph75%29.94 "HgN/A
12:00 PM70 °FMild.15 mph67%29.94 "HgN/A
11:00 AM68 °FMild.13 mph68%29.96 "HgN/A
10:00 AM64 °FMild.6 mph72%29.97 "HgN/A
9:00 AM60 °FCool.10 mph81%29.97 "HgN/A
8:00 AM60 °FCool.13 mph81%29.97 "HgN/A
7:00 AM59 °FCool.12 mph84%29.96 "HgN/A
6:00 AM59 °FCool.12 mph83%29.96 "HgN/A
5:00 AM59 °FCool.9 mph85%29.97 "HgN/A
4:00 AM58 °FCool.9 mph87%29.98 "HgN/A
3:00 AM59 °FCool.10 mph85%29.99 "HgN/A
2:00 AM60 °FCool.10 mph83%30.00 "HgN/A
Weather by CustomWeather, © 2014

See weather overviewHow to use our weather pages